Santuari del Far - Susqueda





Hora UTC 08:15
Temperatura 21.4 ºC
Humitat 58.0 %
Pressió 1018.4 hPa
Pluja 0.2 mm
Velocitat vent 1.6 km/h
Direcció vent N

Dades diàries 2022-07-07



Hora UTC (hivern +1h; estiu +2h)
Temperatura (ºC) Humitat (%) Pressió (hPa) Velocitat vent (km/h) Precipitació (mm)
Hora UTC Aire Humitat Pressió Vel. Dir. Vel. Max Dir. Intent. màx 5 min.
00:05 17.8 63.0 1018.1 6.4 N 6.4 0.0
00:10 17.8 63.0 1017.9 4.8 N 6.4 0.2
00:15 17.9 63.0 1018.1 3.2 N 6.4 0.0
00:20 17.9 63.0 1017.9 4.8 N 6.4 0.0
00:25 17.9 63.0 1017.9 3.2 N 6.4 0.0
00:30 17.9 63.0 1017.9 3.2 N 4.8 0.0
00:35 17.9 63.0 1018.0 0.0 N 4.8 0.0
00:40 17.8 63.0 1017.9 0.0 N 3.2 0.0
00:45 17.8 63.0 1017.9 0.0 N 1.6 0.0
00:50 17.7 63.0 1018.0 0.0 N 1.6 0.0
00:55 17.6 63.0 1018.0 1.6 N 1.6 0.0
01:00 17.6 63.0 1018.0 1.6 N 4.8 0.0
01:05 17.7 63.0 1018.0 0.0 N 4.8 0.0
01:10 17.7 63.0 1017.9 1.6 N 3.2 0.0
01:15 17.7 63.0 1017.9 0.0 N 3.2 0.0
01:20 17.6 62.0 1017.8 0.0 N 3.2 0.0
01:25 17.4 62.0 1017.9 0.0 N 3.2 0.0
01:25 17.3 61.0 1017.9 0.0 N 1.6 0.0
01:35 17.2 61.0 1017.8 0.0 N 1.6 0.0
01:40 17.1 62.0 1017.9 0.0 N 1.6 0.0
01:45 17.1 62.0 1017.8 1.6 N 1.6 0.0
01:50 17.2 62.0 1017.8 0.0 N 3.2 0.0
01:55 17.2 63.0 1017.7 0.0 N 1.6 0.0
02:00 17.2 63.0 1017.6 0.0 N 3.2 0.0
02:05 17.2 63.0 1017.7 1.6 N 1.6 0.0
02:10 17.2 63.0 1017.6 4.8 N 6.4 0.0
02:15 17.3 63.0 1017.6 1.6 N 6.4 0.0
02:20 17.4 62.0 1017.5 0.0 N 3.2 0.0
02:25 17.3 62.0 1017.5 1.6 N 4.8 0.0
02:30 17.3 62.0 1017.5 3.2 N 4.8 0.0
02:35 17.3 62.0 1017.5 1.6 N 3.2 0.0
02:40 17.3 62.0 1017.4 1.6 N 3.2 0.0
02:45 17.4 62.0 1017.2 1.6 N 4.8 0.0
02:50 17.4 62.0 1017.2 1.6 N 4.8 0.0
02:55 17.4 62.0 1017.1 1.6 N 4.8 0.0
03:00 17.4 63.0 1017.1 3.2 N 3.2 0.0
03:05 17.4 63.0 1017.2 1.6 N 6.4 0.0
03:10 17.4 63.0 1017.3 1.6 N 6.4 0.0
03:15 17.4 63.0 1017.2 3.2 N 6.4 0.0
03:20 17.6 62.0 1017.4 3.2 N 4.8 0.0
03:25 17.5 62.0 1017.4 1.6 N 3.2 0.0
03:30 17.6 63.0 1017.3 3.2 N 4.8 0.0
03:35 17.6 63.0 1017.3 1.6 N 4.8 0.0
03:40 17.6 63.0 1017.3 1.6 N 6.4 0.0
03:45 17.4 63.0 1017.3 1.6 N 6.4 0.0
03:50 17.4 63.0 1017.3 3.2 N 4.8 0.0
03:55 17.3 63.0 1017.3 4.8 N 8.0 0.0
04:00 17.3 63.0 1017.4 1.6 N 8.0 0.0
04:05 17.3 63.0 1017.4 1.6 N 4.8 0.0
04:10 17.3 63.0 1017.4 0.0 N 4.8 0.0
04:15 17.2 63.0 1017.4 1.6 N 4.8 0.0
04:20 17.1 63.0 1017.3 4.8 N 4.8 0.0
04:25 17.1 62.0 1017.3 3.2 N 4.8 0.0
04:30 17.1 63.0 1017.3 0.0 N 3.2 0.0
04:35 17.1 62.0 1017.3 1.6 N 3.2 0.0
04:40 17.1 62.0 1017.4 0.0 N 3.2 0.0
04:45 17.2 63.0 1017.4 1.6 N 3.2 0.0
04:50 17.2 63.0 1017.4 1.6 N 6.4 0.0
04:55 17.3 63.0 1017.5 3.2 N 6.4 0.0
05:00 17.4 63.0 1017.5 3.2 N 4.8 0.0
05:05 17.5 63.0 1017.7 3.2 N 4.8 0.0
05:10 17.6 63.0 1017.6 1.6 N 4.8 0.0
05:15 17.7 63.0 1017.6 1.6 N 4.8 0.0
05:20 17.7 63.0 1017.6 0.0 N 4.8 0.0
05:25 17.7 63.0 1017.5 0.0 N 3.2 0.0
05:30 17.8 63.0 1017.7 3.2 N 3.2 0.0
05:35 17.8 63.0 1017.8 3.2 N 3.2 0.0
05:40 17.9 63.0 1017.8 1.6 N 3.2 0.0
05:45 18.1 63.0 1017.8 0.0 N 3.2 0.0
05:50 18.3 63.0 1017.7 3.2 N 3.2 0.0
05:55 18.5 63.0 1017.8 1.6 N 3.2 0.0
06:00 18.6 63.0 1017.9 0.0 N 3.2 0.0
06:05 18.6 63.0 1017.9 0.0 N 1.6 0.0
06:10 18.6 63.0 1018.0 0.0 N 1.6 0.0
06:15 18.6 63.0 1018.1 0.0 N 3.2 0.0
06:20 18.6 63.0 1018.1 3.2 N 4.8 0.0
06:25 18.7 63.0 1017.9 3.2 N 4.8 0.0
06:30 18.8 63.0 1018.0 1.6 N 4.8 0.0
06:35 18.9 63.0 1017.9 3.2 N 4.8 0.0
06:40 18.8 63.0 1018.1 0.0 N 4.8 0.0
06:45 18.8 63.0 1018.0 0.0 N 4.8 0.0
06:50 18.8 63.0 1018.0 1.6 N 4.8 0.0
06:55 18.7 63.0 1018.2 0.0 N 4.8 0.0
07:00 18.7 63.0 1018.2 1.6 N 4.8 0.0
07:05 18.7 63.0 1018.2 0.0 N 4.8 0.0
07:10 18.8 63.0 1018.2 1.6 N 4.8 0.0
07:15 18.8 63.0 1018.2 1.6 N 4.8 0.0
07:20 18.8 63.0 1018.4 1.6 N 4.8 0.0
07:25 18.8 63.0 1018.4 1.6 N 4.8 0.0
07:30 18.8 62.0 1018.5 3.2 N 4.8 0.0
07:35 19.1 62.0 1018.5 0.0 N 4.8 0.0
07:40 19.3 61.0 1018.4 0.0 N 4.8 0.0
07:45 19.7 60.0 1018.5 0.0 N 3.2 0.0
07:50 20.1 59.0 1018.4 0.0 N 3.2 0.0
07:55 20.5 59.0 1018.3 0.0 N 3.2 0.0
08:00 20.9 58.0 1018.5 0.0 N 3.2 0.0
08:05 21.1 58.0 1018.3 1.6 N 3.2 0.0
08:10 21.2 57.0 1018.3 1.6 N 3.2 0.0
08:15 21.4 58.0 1018.4 1.6 N 4.8 0.0
Màxima 21.4 63.0 1018.5 6.4 N 8.0 0.2
Mínima 16.9 57.0 1017.1
Total 0.2